This demonstration page uses our WeatherBlox Daily Observations layout. Learn more.

Left ArrowRight Arrow

39.92423, -83.80882

Hourly Observations for January 10, 2022

Temp ( °F °C ) Dew Point ( °F °C ) Humidity (%) Winds ( mph kmh ) Pressure ( in mb ) Visibility ( mi km ) Precip ( " mm )
12:56 am 00:56 Clear 20 -6.7 17 -8.3 89 89 W 6 9 30.49 1032 10 16 0.00 0.00
1:56 am 01:56 Clear 20 -6.7 15 -9.4 81 81 W 10 17 30.47 1032 10 16 0.00 0.00
2:56 am 02:56 Clear 20 -6.7 16 -8.9 85 85 WNW 10 17 30.48 1032 10 16 0.00 0.00
3:56 am 03:56 Clear 18 -7.8 13 -10.6 81 81 WNW 13 20 30.48 1032 10 16 0.00 0.00
4:56 am 04:56 Clear 17 -8.3 12 -11.1 80 80 WNW 13 20 30.46 1032 10 16 0.00 0.00
5:56 am 05:56 Clear 16 -8.9 11 -11.7 80 80 W 10 17 30.47 1032 10 16 0.00 0.00
6:56 am 06:56 Clear 16 -8.9 11 -11.7 80 80 W 10 17 30.47 1032 10 16 0.00 0.00
7:56 am 07:56 Mostly Cloudy 16 -8.9 10 -12.2 77 77 W 12 19 30.48 1032 10 16 0.00 0.00
8:56 am 08:56 Mostly Cloudy 17 -8.3 9 -12.8 70 70 W 13 20 30.49 1033 10 16 0.00 0.00
9:56 am 09:56 Cloudy 19 -7.2 9 -12.8 65 65 W 13 20 30.49 1033 10 16 0.00 0.00
10:56 am 10:56 Cloudy 20 -6.7 9 -12.8 62 62 WNW 15 24 30.49 1033 10 16 0.00 0.00
11:56 am 11:56 Cloudy 21 -6.1 10 -12.2 62 62 W 13 20 30.47 1032 10 16 0.00 0.00
12:56 pm 12:56 Cloudy 23 -5 11 -11.7 60 60 W 13 20 30.43 1030 10 16 0.00 0.00
1:56 pm 13:56 Mostly Sunny 25 -3.9 12 -11.1 58 58 WSW 15 24 30.40 1030 10 16 0.00 0.00
2:56 pm 14:56 Sunny 27 -2.8 12 -11.1 53 53 W 18 30 30.39 1029 10 16 0.00 0.00
3:56 pm 15:56 Sunny 27 -2.8 11 -11.7 51 51 WNW 15 24 30.40 1030 10 16 0.00 0.00
4:56 pm 16:56 Sunny 25 -3.9 12 -11.1 58 58 W 16 26 30.42 1030 10 16 0.00 0.00
5:56 pm 17:56 Clear 23 -5 12 -11.1 63 63 W 12 19 30.44 1031 10 16 0.00 0.00
6:56 pm 18:56 Partly Cloudy 22 -5.6 13 -10.6 68 68 WNW 9 15 30.47 1032 10 16 0.00 0.00
7:56 pm 19:56 Partly Cloudy 21 -6.1 14 -10 74 74 WNW 9 15 30.48 1032 10 16 0.00 0.00
8:56 pm 20:56 Mostly Clear 21 -6.1 13 -10.6 71 71 WNW 13 20 30.50 1033 10 16 0.00 0.00
9:56 pm 21:56 Clear 19 -7.2 12 -11.1 74 74 NW 10 17 30.52 1034 10 16 0.00 0.00
10:56 pm 22:56 Clear 16 -8.9 11 -11.7 80 80 NNW 12 19 30.55 1035 10 16 0.00 0.00
11:56 pm 23:56 Clear 14 -10 7 -13.9 73 73 NW 14 22 30.58 1036 10 16 0.00 0.00

Powered by AerisWeather